Weather History for Deering, AK

Change the Weather History Date:

Sunday, March 17, 2013

  Actual Average (PAOT) Record (PAOT)
Temperature  
Mean Temperature 10 °F -  
Max Temperature 19 °F - 36 °F (1900)
Min Temperature 1 °F -7 °F -42 °F (1966)
Degree Days  
Heating Degree Days 55 64  
Month to date heating degree days 1104  
Since 1 July heating degree days 11346  
Cooling Degree Days 0    
Month to date cooling degree days  
Year to date cooling degree days  
Moisture  
Dew Point 7 °F    
Average Humidity 80    
Maximum Humidity 88    
Minimum Humidity 71    
Precipitation  
Precipitation 0.00 in 0.02 in 0.16 in (1991)
Month to date precipitation 0.28  
Year to date precipitation 1.56  
Snow  
Snow 0.00 in 0.20 in 1.60 in (1991)
Month to date snowfall 3.8  
Since 1 July snowfall 51.4  
Snow Depth -    
Sea Level Pressure  
Sea Level Pressure 30.28 in    
Wind  
Wind Speed 5 mph (East)    
Max Wind Speed 15 mph    
Max Gust Speed -    
Visibility 10 miles    
Events      
T = Trace of Precipitation, MM = Missing Value Source: NWS Daily Summary

Daily Weather History Graph

Daily Weather History Graph

Search for Another Location

Airport:

Trip Planner

Search our weather history database for the weather conditions in past years. The results will help you decide how hot, cold, wet, or windy it might be!

Date:

Astronomy

Mar. 17, 2013 Rise Set
Actual Time 9:00 AM AKDT 8:59 PM AKDT
Civil Twilight 8:09 AM AKDT 9:50 PM AKDT
Nautical Twilight 7:07 AM AKDT 10:53 PM AKDT
Astronomical Twilight 5:56 AM AKDT 12:06 AM AKDT
Moon 9:51 AM AKDT (3/17) 4:45 AM AKDT (3/17)
Length of Visible Light 13h 40m
Length of Day
11h 58m
Waxing Crescent, 33% of the Moon is Illuminated
Mar 17
Waxing Crescent
Mar 19
First Quarter
Mar 27
Full
Apr 2
Last Quarter
Apr 10
New

Hourly Weather History & Observations

Time (AKDT) Temp. Windchill Dew Point Humidity Pressure Visibility Wind Dir Wind Speed Gust Speed Precip Events Conditions
12:53 AM 12.9 °F -0.2 °F 6.1 °F 74% 30.11 in 10.0 mi North 10.4 mph - N/A   Clear
1:53 AM 19.0 °F - 10.9 °F 71% 30.13 in 10.0 mi Calm Calm - N/A   Partly Cloudy
3:53 AM 16.0 °F 8.8 °F 10.0 °F 77% 30.18 in 10.0 mi East 4.6 mph - N/A   Partly Cloudy
4:53 AM 10.9 °F 2.9 °F 7.0 °F 84% 30.19 in 10.0 mi NW 4.6 mph - N/A   Clear
5:27 AM 10.4 °F 0.8 °F 6.8 °F 85% 30.21 in 10.0 mi ENE 5.8 mph - N/A   Clear
5:53 AM 10.0 °F -6.5 °F 3.9 °F 76% 30.22 in 10.0 mi East 15.0 mph - N/A   Clear
6:53 AM 12.0 °F - 7.0 °F 80% 30.23 in 10.0 mi Calm Calm - N/A   Scattered Clouds
7:53 AM 9.0 °F -0.9 °F 5.0 °F 84% 30.25 in 10.0 mi East 5.8 mph - N/A   Clear
8:53 AM 12.9 °F 6.9 °F 7.0 °F 77% 30.26 in 10.0 mi NE 3.5 mph - N/A   Clear
9:53 AM 10.9 °F 1.4 °F 7.0 °F 84% 30.27 in 10.0 mi ESE 5.8 mph - N/A   Clear
10:30 AM 14.0 °F - 8.6 °F 79% 30.28 in 10.0 mi Calm Calm - N/A   Mostly Cloudy
10:53 AM 12.0 °F 4.1 °F 6.1 °F 77% 30.29 in 10.0 mi NE 4.6 mph - N/A   Overcast
12:53 PM 17.1 °F - 10.9 °F 77% 30.32 in 10.0 mi Calm Calm - N/A   Overcast
1:53 PM 18.0 °F 12.7 °F 12.0 °F 78% 30.33 in 10.0 mi SE 3.5 mph - N/A   Mostly Cloudy
2:53 PM 17.1 °F - 12.0 °F 81% 30.34 in 10.0 mi Calm Calm - N/A   Clear
3:53 PM 17.1 °F - 12.0 °F 81% 30.34 in 10.0 mi Calm Calm - N/A   Partly Cloudy
4:53 PM 17.1 °F 11.7 °F 10.9 °F 77% 30.34 in 10.0 mi NE 3.5 mph - N/A   Clear
5:53 PM 18.0 °F - 10.9 °F 74% 30.34 in 10.0 mi Calm Calm - N/A   Clear
6:53 PM 15.1 °F - 10.0 °F 80% 30.35 in 10.0 mi Calm Calm - N/A   Clear
7:53 PM 8.1 °F -2.0 °F 3.0 °F 80% 30.35 in 10.0 mi West 5.8 mph - N/A   Clear
8:53 PM 3.9 °F -8.2 °F -0.9 °F 80% 30.36 in 10.0 mi SSW 6.9 mph - N/A   Clear
9:53 PM 3.0 °F -13.3 °F -0.9 °F 84% 30.38 in 10.0 mi SW 11.5 mph - N/A   Mostly Cloudy
10:53 PM 1.9 °F -12.9 °F -0.9 °F 88% 30.37 in 10.0 mi SSW 9.2 mph - N/A   Clear
11:53 PM 1.9 °F -12.9 °F -0.9 °F 88% 30.37 in 7.0 mi SSW 9.2 mph - N/A   Clear